Вернуться в каталог

COSMOS 660

АктивенВоенныеPO
NORAD 7337·PAYLOAD·🇷🇺 Russia

Запущен Jun 18, 1974 с Plesetsk Cosmodrome

Loading…

Ближайшие Пролёты (ближайшие 24 часа)

TLE

СвежийSource: Space-Track

Эпоха: Sep 14, 2026, 13:28 UTC

1 07337U 74044A   26257.56133827  .00006538  00000-0  25726-3 0  9993
2 07337  82.9387 191.6179 0428555  72.7110 292.0508 14.68666231654734

Отслеживайте COSMOS 660 в реальном времени с AllMySat

Download on the App Store